www.pogodaiklimat.ru

Погода и климат >> Архив погоды >> Латвия >> Лиепая


АРХИВ ПОГОДЫ в Лиепае

Время (UTC), дата Ветер
(напр.,м/с)
 
Видим.   Явления Облачность Т
(С)
Тd
(С)
f
(%)
Тe
(С)
Тes
(С)
Комфортность P
(гПа)
Po
(гПа)
Тmin
(С)
Tmax
(С)
R
(мм)
R24
(мм)
S
(см)
12 10.07 С 4-7
{10}
20 км н/о +16.5 +10.9 69 +16 +16 холодно 1008.4 1007.8
15 10.07 С 4-8
{10}
20 км н/о +15.7 +10.6 72 +15 +15 холодно 1008.9 1008.3
18 10.07 С 3-6
{7}
н/о н/о +15.1 +11.4 79 +14 +14 холодно 1009.4 1008.8
21 10.07 С 2-3
{4}
н/о н/о +13.8 +10.7 82 +13 +13 прохладно 1010.6 1009.5
00 11.07 СЗ 1-2
{3}
20 км н/о +13.2 +11.5 89 +13 +13 по сезону 1009.9 1009.3
03 11.07 СЗ 2-3
{3}
20 км н/о +13.6 +11.4 87 +13 +13 по сезону 1009.3 1008.7
06 11.07 СЗ 3-5
{5}
20 км 3/0 2000 м
[]
+16.4 +12.5 78 +16 +19 по сезону 1009.4 1008.8
09 11.07 З 3-6
{6}
20 км н/о +17.1 +12.1 72 +17 +17 по сезону 1009.4 1008.8
12 11.07 СЗ 3-6
{7}
20 км н/о +17.0 +13.3 79 +17 +17 прохладно 1009.2 1008.6
15 11.07 СЗ 4-6
{6}
20 км н/о +16.3 +12.6 79 +16 +16 прохладно 1008.7 1008.1
18 11.07 С 2-7
{8}
20 км н/о +14.9 +10.8 76 +15 +15 прохладно 1008.8 1008.2
21 11.07 СЗ 2-3
{4}
20 км н/о +13.3 +9.5 78 +13 +13 прохладно 1009.2 1008.6
00 12.07 -2
{3}
20 км н/о +11.2 +9.5 89 1009.5 1008.9
03 12.07 СВ 2-3
{3}
20 км н/о +12.3 +11.3 94 +11 +11 прохладно 1009.6 1009.0
06 12.07 СВ 2-3
{4}
20 км н/о +15.5 +12.5 82 +15 +15 по сезону 1010.1 1009.5
09 12.07 СЗ 3-5
{5}
20 км 8/8 300 м
[]
+16.6 +12.5 77 +16 +21 прохладно 1010.6 1010.0
12 12.07 СЗ 3-6
{7}
20 км ясно +18.2 +11.4 64 +19 +30 по сезону 1010.7 1010.1
15 12.07 СЗ 4-6
{7}
20 км ясно +18.7 +11.2 62 +19 +23 по сезону 1010.5 1009.9
18 12.07 С 2-4
{5}
20 км ясно +16.5 +11.8 74 +17 +17 по сезону 1010.6 1010.0
21 12.07 С 2-4
{5}
20 км 9/0
[]
+14.5 +11.2 81 +14 +14 по сезону 1011.1 1010.5
00 13.07 СВ 3-5
{5}
20 км 9/9 1000 м
[]
+14.2 +10.4 78 +13 +13 по сезону 1011.1 1010.5
03 13.07 СВ 2-3
{4}
20 км 8/0 2000 м
[]
+13.4 +11.2 87 +13 +13 по сезону 1010.9 1010.3
06 13.07 СВ 2-4
{4}
20 км 9/0 2000 м
[]
+15.9 +10.6 71 +16 +17 по сезону 1011.0 1010.4
09 13.07 СЗ 3-5
{7}
20 км н/о +16.6 +9.2 62 +16 +16 прохладно 1011.3 1010.7
12 13.07 20 км н/о +17.4 +10.2 63 1011.3 1010.7
15 13.07 С 3-7
{10}
20 км н/о +18.3 +11.1 63 +19 +24 по сезону 1011.0 1010.4
18 13.07 -7
{9}
20 км н/о +15.9 +10.6 71 1011.6 1011.0
21 13.07 С 2-3
{3}
20 км н/о +13.6 +10.7 83 +13 +13 прохладно 1012.3 1011.7
00 14.07 С 1-2
{3}
20 км н/о +8.5 +7.7 95 +8 +8 холодно 1012.6 1012.0
03 14.07 штиль 0-1
{1}
17 км н/о +7.2 +7.0 99 +6 +6 очень
холодно
1012.5 1011.9
06 14.07 СВ 1-3
{3}
20 км н/о +16.8 +10.3 65 +18 +18 тепло 1012.7 1012.1
09 14.07 СЗ 4-7
{7}
20 км н/о +17.9 +11.6 67 +18 +27 по сезону 1013.2 1012.6
12 14.07 СЗ 4-8
{8}
н/о н/о +18.5 +12.6 68 +19 +19 по сезону 1013.3 1012.7
15 14.07 С 4-8
{8}
20 км н/о +18.1 +12.3 69 +18 +18 по сезону 1013.4 1012.8
18 14.07 С 2-5
{6}
20 км н/о +16.5 +13.0 80 +17 +17 по сезону 1013.3 1012.7
21 14.07 С 2-3
{3}
20 км н/о +14.2 +12.3 88 +14 +14 по сезону 1013.8 1013.2
00 15.07 С 1-2
{2}
12 км н/о +11.1 +10.9 99 +11 +11 прохладно 1013.7 1013.1
03 15.07 СЗ 1-1
{1}
19 км н/о +10.7 +10.6 99 +10 +10 прохладно 1013.9 1013.3
06 15.07 ЮЗ 2-4
{4}
20 км н/о +16.3 +12.8 80 +16 +16 по сезону 1012.7 1012.1
09 15.07 ЮЗ 5-8
{8}
20 км н/о +17.9 +13.9 77 +17 +17 по сезону 1012.9 1012.3
12 15.07 ЮЗ 4-7
{8}
н/о н/о +19.3 +13.8 70 +21 +21 комфорт 1012.6 1012.0
15 15.07 ЮЗ 4-8
{8}
20 км н/о +18.6 +15.4 82 +19 +19 по сезону 1011.9 1011.3
18 15.07 ЮЗ 2-4
{5}
20 км н/о +16.8 +14.7 87 +17 +17 по сезону 1010.9 1010.3
21 15.07 ЮЗ 4-7
{7}
20 км н/о +16.8 +13.6 81 +16 +16 по сезону 1010.0 1009.4
00 16.07 ЮЗ 6-10
{11}
20 км н/о +16.6 +11.7 73 +16 +16 тепло 1008.3 1007.7
03 16.07 ЮЗ 6-12
{12}
20 км н/о +16.0 +11.7 76 +15 +15 по сезону 1006.2 1005.6
06 16.07 С 2-4
{8}
19 км н/о +13.1 +11.6 91 +12 +12 прохладно 1006.1 1005.5 0.4
09 16.07 20 км н/о +16.0 +9.3 64 1006.8 1006.2
12 16.07 СЗ 4-7
{7}
20 км н/о +16.7 +10.5 67 +16 +16 холодно 1007.1 1006.5
15 16.07 З 3-6
{7}
20 км н/о +15.9 +11.0 73 +15 +15 холодно 1007.2 1006.6
18 16.07 СВ 1-2
{4}
14 км н/о +14.3 +11.7 84 +15 +15 прохладно 1007.3 1006.7
21 16.07 штиль 0
{1}
5000 м н/о +11.6 +11.2 97 +11 +11 холодно 1007.4 1006.8
00 17.07 С 2-3
{4}
20 км н/о +12.4 +10.6 89 +11 +11 прохладно 1007.6 1007.0
03 17.07 СЗ 1-1
{2}
19 км н/о +8.6 +8.4 99 +8 +8 холодно 1007.5 1006.9
06 17.07 СВ 4-7
{9}
20 км н/о +14.6 +12.4 87 +13 +13 прохладно 1007.8 1007.2
09 17.07 С 3-5
{7}
20 км н/о +17.4 +12.4 72 +17 +17 по сезону 1008.6 1008.0

 

Местоположение метеостанции Лиепая (Латвия): широта 56.48 долгота 21.02 высота над уровнем моря 7 м.

В архиве по умолчанию представлена погода в Лиепае за последнюю неделю. Архивные данные за месяц целиком и за предыдущие месяцы, начиная с января 2011 года, Вы можете получить, выбрав интересующий диапазон дат из раскрывающегося списка и нажав кнопку "Ввод!".


*Определитесь, кто Вы:
робот инопланетянин человек

Внимание! Время в таблицах - всемирное. Для получения местного времени необходимо прибавить поправку, которая равна 2 ч.

Смотрите также архив погоды в соседних городах и на ближайших метеорологических станциях:

Погода в Павилосте (Латвия) (46 км)
Погода в Мажейкяе (Литва) (81 км)
Погода в Kлайпеде (Литва) (83 км)
Погода в Салдусе (Латвия) (93 км)
Погода в Тельшяе (Литва) (95 км)
Погода в Вентспилсе (Латвия) (107 км)
Погода в Стенде (Латвия) (121 км)
Погода в Лаукуве (Литва) (122 км)
Погода в Шилуте (Литва) (129 км)
Погода в Ниде (Литва) (129 км)

Пояснения к столбцам:

Ветер - указаны скорость ветра в м/с - средняя за 10 мин, порывы в срок и между сроками (в фигурных скобках) и направление, откуда дует ветер: С - северный, СВ - северо-восточный, В - восточный, ЮВ - юго-восточный, Ю - южный, ЮЗ - юго-западный, З - западный, СЗ - северо-западный.
Видимость - горизонтальная дальность видимости в метрах или километрах. При видимости от 1 до 10 км при отсутствии осадков обычно наблюдается дымка, при ухудшении видимости до 1 км и менее - туман. В сухую погоду видимость может ухудшаться дымом, пылью или мглою.
Явления - указаны атмосферные явления, наблюдавшиеся в срок или в последний час перед сроком; фигурными скобками обозначены явления, наблюдавшиеся между сроками (за 1-3 часа до срока); квадратными скобками обозначены град или гололедные отложения с указанием их диаметра в мм.
Облачность - указаны через наклонную черту общая и нижняя облачность в баллах и высота нижней границы облаков в метрах; квадратными скобками обозначены формы облаков: Ci - перистые, Cs - перисто-слоистые, Cc - перисто-кучевые, Ac - высококучевые, As - высокослоистые, Sc - слоисто-кучевые, Ns - слоисто-дождевые, Cu - кучевые, Cb - кучево-дождевые. Подробнее классификацию облаков см. в Атласе облаков (PDF).
T - Температура воздуха - температура, измеренная на высоте 2 м над землей.
Td - Температура точки росы - температура, при понижении до которой содержащийся в воздухе водяной пар достигнет насыщения.
f - Относительная влажность воздуха - влажноcть воздуха, измеренная на высоте 2 м над землей.
Te - Эффективная температура - температура, которую ощущает одетый по сезону человек в тени. Характеристика душности погоды. При расчете учитывается влияние влажности воздуха и скорости ветра на теплоощущения человека.
Tes - Эффективная температура на солнце - температура, которую ощущает человек, с поправкой на солнечный нагрев. Характеристика знойности погоды. Зависит от высоты солнца над горизонтом, облачности и скорости ветра. Ночью, в пасмурную погоду, а также при ветре 12 м/с и более поправка равна нулю.
P - Атмосферное давление - приведенное к уровню моря атмосферное давление.
Po - Атмосферное давление - измеренное на уровне метеостанции атмосферное давление.
Tmin - Минимальная температура - минимум температуры воздуха на высоте 2 м над землей.
Tmax - Максимальная температура - максимум температуры воздуха на высоте 2 м над землей.
R - Количество осадков - Количество выпавших осадков за период времени, мм. При наведении курсора мыши на число - период времени, за который выпало указанное количество осадков.
R24 - Количество осадков - Количество выпавших осадков за 24 часа, мм.
S - Снежный покров - Высота снежного покрова, см. При наведении курсора мыши на число - состояние снежного покрова и степень покрытия местности в баллах.